Find Starlink 6250

NORAD ID: 57230 Int'l Des: 2023-094 Owner: SPXS Country: US Constellation: starlink operational
LEOCIRCULAR

实时位置

正在加载3D地球...

关于 Starlink 6250

正在加载描述...

即将过境

Passes for default location (London). Set your location on the main map for personalized predictions.

高度历史

Loading altitude history...

两行轨道根数

1 57230U 23094N 26123.16256595 .00000258 00000-0 19316-4 0 9997
2 57230 43.0045 83.3199 0001415 263.7882 96.2809 15.26737360155448
Epoch: May 3, 2026 • Age: 5 hours

当前状态

高度 484.8 km
速度 7.63 km/s
星下点 11.04°N, 111.14°W
发射日期 Jul 7, 2023
运行时间 2.8 years
类型 internet

技术详情

分类 Payload
质量 305.00 kg
干质量 290.00 kg
总质量 305.00 kg
长度 0.20 m
直径 2.80 m
跨度 9.00 m
形状 Box + pan
制造商 SPXS
平台类型 Starlink
阶段状态 In Orbit
所有者/国家 SPXS/US

Most Searched